TimeMDT,TemperatureF,Dew PointF,Humidity,Sea Level PressureIn,VisibilityMPH,Wind Direction,Wind SpeedMPH,Gust SpeedMPH,PrecipitationIn,Events,Conditions,WindDirDegrees,DateUTC
12:53 AM,46.0,25.0,44,29.92,10.0,ENE,4.6,-,N/A,,Clear,60,2012-10-03 06:53:00
1:53 AM,42.1,24.1,49,29.94,10.0,ENE,6.9,-,N/A,,Clear,60,2012-10-03 07:53:00
2:53 AM,43.0,25.0,49,29.94,10.0,ENE,5.8,-,N/A,,Clear,70,2012-10-03 08:53:00
3:53 AM,41.0,25.0,53,29.93,10.0,ENE,5.8,-,N/A,,Clear,60,2012-10-03 09:53:00
4:53 AM,44.1,25.0,47,29.93,10.0,East,6.9,-,N/A,,Clear,100,2012-10-03 10:53:00
5:53 AM,43.0,25.0,49,29.95,10.0,ENE,5.8,-,N/A,,Clear,70,2012-10-03 11:53:00
6:53 AM,39.9,25.0,55,29.99,10.0,ENE,5.8,-,N/A,,Clear,70,2012-10-03 12:53:00
7:53 AM,43.0,26.1,51,30.01,10.0,NE,5.8,-,N/A,,Clear,50,2012-10-03 13:53:00
9:53 AM,60.1,28.0,30,30.00,10.0,Calm,Calm,-,N/A,,Clear,0,2012-10-03 15:53:00
11:53 AM,75.0,24.1,15,29.96,10.0,SSW,3.5,-,N/A,,Clear,210,2012-10-03 17:53:00
12:53 PM,78.1,24.1,14,29.93,10.0,WNW,10.4,-,N/A,,Clear,300,2012-10-03 18:53:00
1:53 PM,79.0,21.9,12,29.91,10.0,WNW,16.1,21.9,N/A,,Clear,290,2012-10-03 19:53:00
2:53 PM,81.0,21.0,11,29.89,10.0,West,13.8,20.7,N/A,,Clear,270,2012-10-03 20:53:00
3:53 PM,81.0,19.9,10,29.90,10.0,WNW,15.0,23.0,N/A,,Clear,290,2012-10-03 21:53:00
4:53 PM,81.0,19.9,10,29.88,10.0,WSW,16.1,21.9,N/A,,Clear,250,2012-10-03 22:53:00
5:53 PM,80.1,19.0,10,29.88,10.0,West,12.7,19.6,N/A,,Clear,270,2012-10-03 23:53:00
6:53 PM,71.1,21.9,16,29.92,10.0,WSW,9.2,-,N/A,,Clear,250,2012-10-04 00:53:00
7:53 PM,64.9,23.0,20,29.95,10.0,South,3.5,-,N/A,,Clear,190,2012-10-04 01:53:00
8:53 PM,55.9,26.1,32,29.97,10.0,ENE,9.2,-,N/A,,Clear,60,2012-10-04 02:53:00
9:53 PM,54.0,24.1,31,29.96,10.0,ENE,9.2,-,N/A,,Clear,60,2012-10-04 03:53:00
10:53 PM,53.1,25.0,34,29.95,10.0,East,5.8,-,N/A,,Clear,90,2012-10-04 04:53:00
11:53 PM,48.9,26.1,41,29.96,10.0,ENE,5.8,-,N/A,,Clear,60,2012-10-04 05:53:00